This demonstration page uses our WeatherBlox Daily Observations layout. Learn more.

Left ArrowRight Arrow

31.31129, -92.44514

Hourly Observations for August 27, 2022

Temp ( °F °C ) Dew Point ( °F °C ) Humidity (%) Winds ( mph kmh ) Pressure ( in mb ) Visibility ( mi km ) Precip ( " mm )
12:04 am 00:04 Mostly Cloudy 79 26.1 76 24.4 90 90 SE 6 9 29.96 1014 10 16 0.00 0.00
12:20 am 00:20 Mostly Clear 79 26.1 76 24.4 90 90 SSE 7 11 29.96 1014 10 16 0.00 0.00
12:53 am 00:53 Cloudy 79 26.1 76 24.4 90 90 SSE 5 7 29.96 1015 10 16 0.00 0.00
1:15 am 01:15 Partly Cloudy 79 26.1 76 24.4 90 90 S 5 7 29.95 1014 10 16 0.00 0.00
1:53 am 01:53 Clear 78 25.6 75 23.9 90 90 SSW 5 7 29.94 1014 9 14 0.00 0.00
2:28 am 02:28 Partly Cloudy 78 25.6 75 23.9 90 90 ESE 5 7 29.94 1014 10 16 0.00 0.00
2:47 am 02:47 Mostly Cloudy 79 26 75 24 89 89 SSE 5 7 29.94 1014 10 16 0.00 0.00
2:53 am 02:53 Mostly Cloudy 78 25.6 75 23.9 90 90 ESE 3 6 29.95 1014 10 16 0.00 0.00
3:53 am 03:53 Mostly Cloudy 78 25.6 75 23.9 90 90 SSE 5 7 29.94 1014 9 14 0.00 0.00
4:11 am 04:11 Mostly Cloudy 78 25.6 75 23.9 90 90 SSE 5 7 29.93 1013 9 14 0.00 0.00
4:53 am 04:53 Cloudy 78 25.6 75 23.9 90 90 SSE 3 6 29.93 1014 8 13 0.00 0.00
5:06 am 05:06 Mostly Cloudy 78 25.6 75 23.9 90 90 Calm 29.93 1013 8 13 0.00 0.00
5:23 am 05:23 Mostly Cloudy 77 25 75 23.9 94 94 Calm 29.94 1014 7 11 0.00 0.00
5:32 am 05:32 Cloudy 77 25 75 23.9 94 94 S 5 7 29.94 1014 7 11 0.00 0.00
5:53 am 05:53 Cloudy 77 25 75 23.9 94 94 S 3 6 29.95 1014 7 11 0.00 0.00
6:53 am 06:53 Cloudy with Mist and Fog 78 25.6 75 23.9 90 90 Calm 29.96 1014 6 10 0.00 0.00
7:36 am 07:36 Cloudy 78 25.6 75 23.9 90 90 SSE 5 7 29.95 1014 8 13 0.00 0.00
7:53 am 07:53 Cloudy 78 25.6 75 23.9 90 90 S 5 7 29.96 1015 8 13 0.00 0.00
8:53 am 08:53 Cloudy 80 26.7 76 24.4 87 87 Calm 29.96 1015 9 14 0.00 0.00
9:12 am 09:12 Mostly Cloudy 80 26.7 75 23.9 85 85 VRB 3 6 29.95 1014 10 16 0.00 0.00
9:45 am 09:45 Mostly Cloudy 83 28.3 75 23.9 77 77 Calm 29.95 1014 10 16 0.00 0.00
9:53 am 09:53 Mostly Cloudy 84 28.9 75 23.9 74 74 Calm 29.95 1014 10 16 0.00 0.00
10:53 am 10:53 Mostly Cloudy 86 30 75 23.9 70 70 Calm 29.94 1014 10 16 0.00 0.00
11:00 am 11:00 Mostly Cloudy 86 30 75 23.9 70 70 N 3 6 29.94 1014 10 16 0.00 0.00
11:10 am 11:10 Mostly Cloudy 88 31.1 75 23.9 66 66 NE 3 6 29.94 1014 10 16 0.00 0.00
11:53 am 11:53 Mostly Cloudy 86 30 73 22.8 65 65 Calm 29.93 1013 10 16 0.00 0.00
12:00 pm 12:00 Sunny 86 30 73 22.8 65 65 SW 3 6 29.92 1013 10 16 0.00 0.00
12:53 pm 12:53 Mostly Sunny 84 28.9 73 22.8 70 70 SE 12 19 29.92 1013 10 16 0.00 0.00
1:32 pm 13:32 Partly Cloudy with Nearby Thunderstorms 87 30.6 77 25 72 72 SE 15 24 29.89 1012 10 16 0.00 0.00
1:53 pm 13:53 Partly Cloudy with Nearby Thunderstorms 84 28.9 76 24.4 77 77 ESE 8 13 29.90 1013 10 16 0.00 0.00
2:48 pm 14:48 Cloudy with Light Rain 81 27 75 24 84 84 N 7 11 29.88 1012 5 8 0.01 0.13
2:53 pm 14:53 Cloudy with Thunderstorms 81 27.2 76 24.4 85 85 N 7 11 29.89 1012 6 10 0.01 0.13
3:07 pm 15:07 Mostly Cloudy 81 27.2 75 23.9 82 82 E 3 6 29.88 1012 10 16 0.01 0.13
3:53 pm 15:53 Mostly Cloudy 83 28.3 74 23.3 74 74 ESE 5 7 29.89 1012 10 16 0.01 0.13
4:53 pm 16:53 Sunny 85 29.4 75 23.9 72 72 VRB 6 9 29.85 1011 10 16 0.00 0.00
5:53 pm 17:53 Sunny 86 30 76 24.4 72 72 ESE 7 11 29.86 1011 10 16 0.00 0.00
6:53 pm 18:53 Sunny 85 29.4 74 23.3 70 70 ESE 8 13 29.85 1011 10 16 0.00 0.00
7:53 pm 19:53 Clear 82 27.8 75 23.9 79 79 S 6 9 29.86 1011 10 16 0.00 0.00
8:53 pm 20:53 Clear 80 26.7 75 23.9 85 85 SSE 5 7 29.86 1011 10 16 0.00 0.00
9:53 pm 21:53 Clear 79 26.1 75 23.9 88 88 SSE 7 11 29.88 1012 10 16 0.00 0.00
10:53 pm 22:53 Mostly Clear 78 25.6 75 23.9 90 90 SSE 8 13 29.89 1012 10 16 0.00 0.00
11:53 pm 23:53 Clear 77 25 75 23.9 94 94 SSE 3 6 29.88 1012 10 16 0.00 0.00

Powered by AerisWeather